| time (UTC) | temp F | wind direction | speed MPH | gust MPH | rain 1hr in | rain 24hr in | rain mn in | humidity % | barometer mb |
| 20260505210317 | 85 | 190 | 7.0 | 14.0 | 0.00 | 0.00 | 0.00 | 62 | 1004.6 |
| 20260505210044 | 85 | 190 | 6.0 | 13.0 | 0.00 | 0.00 | 0.00 | 62 | 1004.7 |
| 20260505205541 | 85 | 190 | 7.0 | 15.0 | 0.00 | 0.00 | 0.00 | 62 | 1004.7 |
| 20260505204811 | 84 | 190 | 8.0 | 18.0 | 0.00 | 0.00 | 0.00 | 62 | 1004.8 |
| 20260505204312 | 84 | 190 | 8.0 | 16.0 | 0.00 | 0.00 | 0.00 | 62 | 1004.8 |
| 20260505203804 | 84 | 190 | 8.0 | 16.0 | 0.00 | 0.00 | 0.00 | 62 | 1004.9 |
| 20260505203304 | 85 | 190 | 8.0 | 12.0 | 0.00 | 0.00 | 0.00 | 62 | 1005.0 |
| 20260505202803 | 84 | 190 | 7.0 | 13.0 | 0.00 | 0.00 | 0.00 | 61 | 1005.0 |
| 20260505202306 | 84 | 190 | 7.0 | 13.0 | 0.00 | 0.00 | 0.00 | 61 | 1005.1 |
| 20260505201801 | 84 | 190 | 7.0 | 13.0 | 0.00 | 0.00 | 0.00 | 62 | 1005.3 |
| 20260505201259 | 85 | 190 | 7.0 | 13.0 | 0.00 | 0.00 | 0.00 | 61 | 1005.3 |
| 20260505200756 | 85 | 190 | 7.0 | 15.0 | 0.00 | 0.00 | 0.00 | 61 | 1005.3 |
| 20260505195756 | 85 | 190 | 8.0 | 13.0 | 0.00 | 0.00 | 0.00 | 61 | 1005.3 |
| 20260505195256 | 85 | 190 | 8.0 | 16.0 | 0.00 | 0.00 | 0.00 | 61 | 1005.3 |
| 20260505194758 | 85 | 190 | 8.0 | 16.0 | 0.00 | 0.00 | 0.00 | 61 | 1005.3 |
| 20260505194530 | 85 | 190 | 8.0 | 13.0 | 0.00 | 0.00 | 0.00 | 60 | 1005.5 |
| 20260505194028 | 84 | 190 | 7.0 | 13.0 | 0.00 | 0.00 | 0.00 | 59 | 1005.5 |
| 20260505193256 | 84 | 190 | 6.0 | 13.0 | 0.00 | 0.00 | 0.00 | 58 | 1005.6 |
| 20260505192756 | 83 | 190 | 6.0 | 13.0 | 0.00 | 0.00 | 0.00 | 57 | 1005.8 |
| 20260505192300 | 83 | 190 | 7.0 | 14.0 | 0.00 | 0.00 | 0.00 | 54 | 1005.9 |
| 20260505191257 | 83 | 190 | 7.0 | 14.0 | 0.00 | 0.00 | 0.00 | 57 | 1005.9 |
| 20260505190756 | 83 | 190 | 7.0 | 13.0 | 0.00 | 0.00 | 0.00 | 59 | 1006.0 |
| 20260505190257 | 83 | 190 | 7.0 | 12.0 | 0.00 | 0.00 | 0.00 | 55 | 1006.1 |
| 20260505185756 | 83 | 190 | 7.0 | 12.0 | 0.00 | 0.00 | 0.00 | 55 | 1006.1 |
| 20260505185256 | 82 | 190 | 6.0 | 12.0 | 0.00 | 0.00 | 0.00 | 56 | 1006.2 |
| 20260505185033 | 82 | 190 | 6.0 | 13.0 | 0.00 | 0.00 | 0.00 | 56 | 1006.2 |
| 20260505184255 | 82 | 190 | 6.0 | 13.0 | 0.00 | 0.00 | 0.00 | 57 | 1006.2 |
| 20260505183756 | 83 | 190 | 6.0 | 12.0 | 0.00 | 0.00 | 0.00 | 54 | 1006.2 |
| 20260505183254 | 83 | 190 | 7.0 | 12.0 | 0.00 | 0.00 | 0.00 | 57 | 1006.3 |
| 20260505182755 | 83 | 190 | 7.0 | 13.0 | 0.00 | 0.00 | 0.00 | 53 | 1006.3 |
| 20260505182254 | 82 | 190 | 7.0 | 13.0 | 0.00 | 0.00 | 0.00 | 53 | 1006.2 |
| 20260505181755 | 82 | 190 | 6.0 | 13.0 | 0.00 | 0.00 | 0.00 | 50 | 1006.4 |
| 20260505181301 | 82 | 190 | 6.0 | 13.0 | 0.00 | 0.00 | 0.00 | 50 | 1006.5 |
| 20260505180750 | 81 | 190 | 7.0 | 13.0 | 0.00 | 0.00 | 0.00 | 53 | 1006.5 |
| 20260505180250 | 82 | 190 | 6.0 | 11.0 | 0.00 | 0.00 | 0.00 | 53 | 1006.4 |
| 20260505175750 | 82 | 190 | 6.0 | 12.0 | 0.00 | 0.00 | 0.00 | 53 | 1006.4 |
| 20260505175249 | 82 | 190 | 7.0 | 12.0 | 0.00 | 0.00 | 0.00 | 50 | 1006.5 |
| 20260505174750 | 81 | 190 | 7.0 | 12.0 | 0.00 | 0.00 | 0.00 | 53 | 1006.5 |
| 20260505174251 | 81 | 190 | 8.0 | 16.0 | 0.00 | 0.00 | 0.00 | 51 | 1006.6 |
| 20260505173745 | 81 | 190 | 8.0 | 16.0 | 0.00 | 0.00 | 0.00 | 51 | 1006.6 |
| 20260505173248 | 81 | 190 | 7.0 | 12.0 | 0.00 | 0.00 | 0.00 | 50 | 1006.7 |
| 20260505172747 | 81 | 190 | 7.0 | 14.0 | 0.00 | 0.00 | 0.00 | 47 | 1006.7 |
| 20260505172245 | 81 | 190 | 7.0 | 14.0 | 0.00 | 0.00 | 0.00 | 50 | 1006.7 |
| 20260505171746 | 81 | 190 | 6.0 | 14.0 | 0.00 | 0.00 | 0.00 | 47 | 1006.7 |
| 20260505171246 | 80 | 190 | 6.0 | 11.0 | 0.00 | 0.00 | 0.00 | 44 | 1006.9 |
| 20260505170747 | 80 | 190 | 6.0 | 12.0 | 0.00 | 0.00 | 0.00 | 37 | 1007.0 |
| 20260505170247 | 80 | 190 | 6.0 | 12.0 | 0.00 | 0.00 | 0.00 | 37 | 1007.0 |
| 20260505165746 | 80 | 190 | 7.0 | 13.0 | 0.00 | 0.00 | 0.00 | 40 | 1007.0 |
| 20260505165518 | 80 | 190 | 7.0 | 13.0 | 0.00 | 0.00 | 0.00 | 42 | 1007.1 |
| 20260505164747 | 80 | 190 | 6.0 | 12.0 | 0.00 | 0.00 | 0.00 | 41 | 1007.0 |
| 20260505164241 | 80 | 190 | 7.0 | 14.0 | 0.00 | 0.00 | 0.00 | 36 | 1006.9 |
| 20260505164018 | 80 | 190 | 7.0 | 14.0 | 0.00 | 0.00 | 0.00 | 36 | 1006.9 |
| 20260505163240 | 79 | 190 | 6.0 | 13.0 | 0.00 | 0.00 | 0.00 | 28 | 1006.9 |
| 20260505162733 | 79 | 190 | 7.0 | 17.0 | 0.00 | 0.00 | 0.00 | 24 | 1006.9 |
| 20260505162231 | 79 | 190 | 8.0 | 17.0 | 0.00 | 0.00 | 0.00 | 27 | 1006.9 |
| 20260505161230 | 78 | 190 | 7.0 | 14.0 | 0.00 | 0.00 | 0.00 | 18 | 1007.0 |
| 20260505160729 | 78 | 190 | 6.0 | 14.0 | 0.00 | 0.00 | 0.00 | 4 | 1007.0 |
| 20260505160228 | 77 | 190 | 5.0 | 10.0 | 0.00 | 0.00 | 0.00 | 1 | 1007.0 |
| 20260505153217 | 76 | 190 | 6.0 | 12.0 | 0.00 | 0.00 | 0.00 | 1 | 1006.9 |
| 20260505152718 | 76 | 190 | 6.0 | 11.0 | 0.00 | 0.00 | 0.00 | 1 | 1006.9 |
| 20260505152217 | 76 | 190 | 7.0 | 12.0 | 0.00 | 0.00 | 0.00 | 1 | 1007.0 |
| 20260505151717 | 76 | 190 | 6.0 | 12.0 | 0.00 | 0.00 | 0.00 | 1 | 1006.9 |
| 20260505151216 | 76 | 190 | 5.0 | 10.0 | 0.00 | 0.00 | 0.00 | 1 | 1006.9 |
| 20260505150717 | 76 | 190 | 5.0 | 11.0 | 0.00 | 0.00 | 0.00 | 1 | 1006.8 |
| 20260505150216 | 75 | 190 | 4.0 | 11.0 | 0.00 | 0.00 | 0.00 | 1 | 1006.8 |
| 20260505140209 | 74 | 190 | 6.0 | 12.0 | 0.00 | 0.00 | 0.00 | 1 | 1006.7 |
| 20260505124624 | 0 | 0.0 | 0.0 | 0.00 | 0.00 | 0.00 | 1006.4 | ||
| 20260505124031 | 0 | 0.0 | 0.0 | 0.00 | 0.00 | 0.00 | 1006.2 | ||
| 20260505123302 | 0 | 0.0 | 0.0 | 0.00 | 0.00 | 0.00 | 1006.2 | ||
| 20260505122754 | 0 | 0.0 | 0.0 | 0.00 | 0.00 | 0.00 | 1006.2 | ||
| 20260505122253 | 0 | 0.0 | 0.0 | 0.00 | 0.00 | 0.00 | 1006.2 | ||
| 20260505121701 | 0 | 0.0 | 0.0 | 0.00 | 0.00 | 0.00 | 1006.0 | ||
| 20260505121058 | 0 | 0.0 | 0.0 | 0.00 | 0.00 | 0.00 | 1006.1 | ||
| 20260505120550 | 0 | 0.0 | 0.0 | 0.00 | 0.00 | 0.00 | 1005.9 | ||
| 20260505115957 | 0 | 0.0 | 0.0 | 0.00 | 0.00 | 0.00 | 1006.0 | ||
| 20260505115719 | 0 | 0.0 | 0.0 | 0.00 | 0.00 | 0.00 | 1006.1 | ||
| 20260505114859 | 0 | 0.0 | 0.0 | 0.00 | 0.00 | 0.00 | 1006.1 | ||
| 20260505114359 | 0 | 0.0 | 0.0 | 0.00 | 0.00 | 0.00 | 1006.1 | ||
| 20260505113850 | 0 | 0.0 | 0.0 | 0.00 | 0.00 | 0.00 | 1006.2 | ||
| 20260505113522 | 0 | 0.0 | 0.0 | 0.00 | 0.00 | 0.00 | 1006.1 | ||
| 20260505112058 | 70 | 190 | 4.0 | 8.0 | 0.00 | 0.00 | 0.00 | 1 | 1006.0 |
| 20260505111534 | 70 | 190 | 4.0 | 8.0 | 0.00 | 0.00 | 0.00 | 1 | 1006.0 |
| 20260505111032 | 71 | 190 | 4.0 | 8.0 | 0.00 | 0.00 | 0.00 | 1 | 1005.8 |
| 20260505110534 | 71 | 190 | 4.0 | 8.0 | 0.00 | 0.00 | 0.00 | 1 | 1005.5 |
| 20260505102018 | 70 | 190 | 4.0 | 7.0 | 0.00 | 0.00 | 0.00 | 1 | 1005.8 |
| 20260505101515 | 70 | 190 | 4.0 | 8.0 | 0.00 | 0.00 | 0.00 | 1 | 1005.8 |
| 20260505101015 | 70 | 190 | 4.0 | 8.0 | 0.00 | 0.00 | 0.00 | 1 | 1005.9 |
| 20260505100513 | 70 | 190 | 3.0 | 7.0 | 0.00 | 0.00 | 0.00 | 1 | 1005.9 |
| 20260505100012 | 70 | 190 | 3.0 | 8.0 | 0.00 | 0.00 | 0.00 | 1 | 1006.2 |
| 20260505095745 | 70 | 190 | 3.0 | 8.0 | 0.00 | 0.00 | 0.00 | 1 | 1006.2 |
| 20260505095012 | 70 | 190 | 4.0 | 9.0 | 0.00 | 0.00 | 0.00 | 1 | 1006.0 |
| 20260505094513 | 70 | 190 | 4.0 | 9.0 | 0.00 | 0.00 | 0.00 | 1 | 1006.0 |
| 20260505094010 | 70 | 190 | 3.0 | 9.0 | 0.00 | 0.00 | 0.00 | 1 | 1005.9 |
| 20260505093510 | 70 | 190 | 4.0 | 9.0 | 0.00 | 0.00 | 0.00 | 1 | 1005.9 |
| 20260505093007 | 70 | 190 | 4.0 | 8.0 | 0.00 | 0.00 | 0.00 | 1 | 1005.9 |
| 20260505092739 | 70 | 190 | 3.0 | 7.0 | 0.00 | 0.00 | 0.00 | 1 | 1006.0 |
| 20260505092004 | 70 | 190 | 3.0 | 7.0 | 0.00 | 0.00 | 0.00 | 1 | 1006.3 |
| 20260505090956 | 70 | 190 | 4.0 | 8.0 | 0.00 | 0.00 | 0.00 | 1 | 1006.2 |
| 20260505090452 | 70 | 190 | 4.0 | 7.0 | 0.00 | 0.00 | 0.00 | 1 | 1006.1 |
| 20260505085452 | 70 | 190 | 3.0 | 8.0 | 0.00 | 0.00 | 0.00 | 1 | 1006.1 |
| 20260505085002 | 70 | 190 | 4.0 | 8.0 | 0.00 | 0.00 | 0.00 | 1 | 1006.2 |
| 20260505084452 | 70 | 190 | 4.0 | 10.0 | 0.00 | 0.00 | 0.00 | 1 | 1006.3 |
| 20260505083955 | 70 | 190 | 5.0 | 10.0 | 0.00 | 0.00 | 0.00 | 1 | 1006.4 |
| 20260505083446 | 71 | 190 | 5.0 | 10.0 | 0.00 | 0.00 | 0.00 | 1 | 1006.4 |
| 20260505082947 | 71 | 190 | 4.0 | 10.0 | 0.00 | 0.00 | 0.00 | 1 | 1006.5 |
| 20260505082448 | 71 | 190 | 5.0 | 8.0 | 0.00 | 0.00 | 0.00 | 1 | 1006.6 |
| 20260505081947 | 71 | 190 | 4.0 | 8.0 | 0.00 | 0.00 | 0.00 | 1 | 1006.7 |
| 20260505080948 | 70 | 190 | 4.0 | 8.0 | 0.00 | 0.00 | 0.00 | 1 | 1006.7 |
| 20260505080716 | 70 | 190 | 4.0 | 8.0 | 0.00 | 0.00 | 0.00 | 1 | 1006.7 |
| 20260505075942 | 70 | 190 | 4.0 | 8.0 | 0.00 | 0.00 | 0.00 | 1 | 1006.9 |
| 20260505075444 | 70 | 190 | 4.0 | 8.0 | 0.00 | 0.00 | 0.00 | 1 | 1006.9 |
| 20260505074943 | 70 | 190 | 5.0 | 9.0 | 0.00 | 0.00 | 0.00 | 1 | 1006.9 |
| 20260505074718 | 70 | 190 | 5.0 | 9.0 | 0.00 | 0.00 | 0.00 | 1 | 1006.9 |
| 20260505074215 | 70 | 190 | 5.0 | 9.0 | 0.00 | 0.00 | 0.00 | 1 | 1006.9 |
| 20260505073439 | 70 | 190 | 5.0 | 9.0 | 0.00 | 0.00 | 0.00 | 1 | 1007.1 |
| 20260505072938 | 70 | 190 | 5.0 | 8.0 | 0.00 | 0.00 | 0.00 | 1 | 1007.1 |
| 20260505072437 | 70 | 190 | 5.0 | 8.0 | 0.00 | 0.00 | 0.00 | 1 | 1007.1 |
| 20260505071939 | 70 | 190 | 5.0 | 12.0 | 0.00 | 0.00 | 0.00 | 1 | 1007.2 |
| 20260505071438 | 70 | 190 | 4.0 | 12.0 | 0.00 | 0.00 | 0.00 | 1 | 1007.2 |
| 20260505070935 | 70 | 190 | 4.0 | 8.0 | 0.00 | 0.00 | 0.00 | 1 | 1007.2 |
| 20260505070436 | 71 | 190 | 5.0 | 9.0 | 0.00 | 0.00 | 0.00 | 1 | 1007.3 |
| 20260505065941 | 71 | 190 | 5.0 | 9.0 | 0.00 | 0.00 | 0.00 | 1 | 1007.3 |
| 20260505065433 | 71 | 190 | 5.0 | 10.0 | 0.00 | 0.00 | 0.00 | 1 | 1007.3 |
| 20260505064932 | 70 | 190 | 6.0 | 12.0 | 0.00 | 0.00 | 0.00 | 1 | 1007.3 |
| 20260505064426 | 70 | 190 | 6.0 | 12.0 | 0.00 | 0.00 | 0.00 | 1 | 1007.4 |
| 20260505064153 | 70 | 190 | 7.0 | 11.0 | 0.00 | 0.00 | 0.00 | 1 | 1007.4 |
| 20260505063424 | 70 | 190 | 7.0 | 12.0 | 0.00 | 0.00 | 0.00 | 1 | 1007.4 |
| 20260505062924 | 70 | 190 | 6.0 | 13.0 | 0.00 | 0.00 | 0.00 | 1 | 1007.3 |
| 20260505062424 | 70 | 190 | 6.0 | 13.0 | 0.00 | 0.00 | 0.00 | 1 | 1007.4 |
| 20260505061922 | 70 | 190 | 5.0 | 11.0 | 0.00 | 0.00 | 0.00 | 1 | 1007.4 |
| 20260505061421 | 70 | 190 | 6.0 | 13.0 | 0.00 | 0.00 | 0.00 | 1 | 1007.4 |
| 20260505060922 | 70 | 190 | 6.0 | 13.0 | 0.00 | 0.00 | 0.00 | 1 | 1007.4 |
| 20260505060422 | 70 | 190 | 5.0 | 11.0 | 0.00 | 0.00 | 0.00 | 1 | 1007.4 |
| 20260505055918 | 70 | 190 | 5.0 | 11.0 | 0.00 | 0.00 | 0.00 | 1 | 1007.4 |
| 20260505055416 | 70 | 190 | 5.0 | 11.0 | 0.00 | 0.00 | 0.00 | 1 | 1007.5 |
| 20260505054921 | 70 | 190 | 5.0 | 11.0 | 0.00 | 0.00 | 0.00 | 1 | 1007.5 |
| 20260505054418 | 70 | 190 | 6.0 | 11.0 | 0.00 | 0.00 | 0.00 | 1 | 1007.5 |
| 20260505053917 | 70 | 190 | 5.0 | 9.0 | 0.00 | 0.00 | 0.00 | 1 | 1007.7 |
| 20260505053418 | 70 | 190 | 4.0 | 10.0 | 0.00 | 0.00 | 0.00 | 1 | 1007.6 |
| 20260505052917 | 70 | 190 | 4.0 | 10.0 | 0.00 | 0.00 | 0.00 | 1 | 1007.7 |
| 20260505052418 | 70 | 190 | 4.0 | 10.0 | 0.00 | 0.00 | 0.00 | 1 | 1007.6 |
| 20260505052151 | 70 | 190 | 5.0 | 10.0 | 0.00 | 0.00 | 0.00 | 1 | 1007.6 |
| 20260505051914 | 70 | 190 | 5.0 | 10.0 | 0.00 | 0.00 | 0.00 | 1 | 1007.6 |
| 20260505051411 | 70 | 190 | 5.0 | 10.0 | 0.00 | 0.00 | 0.00 | 1 | 1007.6 |
| 20260505050908 | 70 | 190 | 5.0 | 10.0 | 0.00 | 0.00 | 0.00 | 1 | 1007.6 |
| 20260505050409 | 70 | 190 | 4.0 | 9.0 | 0.00 | 0.00 | 0.00 | 1 | 1007.7 |
| 20260505041623 | 70 | 190 | 6.0 | 12.0 | 0.00 | 0.00 | 0.00 | 21 | 1008.2 |
| 20260505040847 | 71 | 190 | 5.0 | 12.0 | 0.00 | 0.00 | 0.00 | 24 | 1008.2 |
| 20260505040348 | 71 | 190 | 5.0 | 14.0 | 0.00 | 0.00 | 0.00 | 26 | 1008.2 |
| 20260505040117 | 71 | 190 | 6.0 | 14.0 | 0.00 | 0.00 | 0.00 | 29 | 1008.2 |
| 20260505035354 | 71 | 190 | 6.0 | 12.0 | 0.00 | 0.00 | 0.00 | 31 | 1008.1 |
| 20260505034858 | 71 | 190 | 7.0 | 13.0 | 0.00 | 0.00 | 0.00 | 33 | 1008.0 |
| 20260505034353 | 71 | 190 | 6.0 | 13.0 | 0.00 | 0.00 | 0.00 | 36 | 1007.9 |
| 20260505033846 | 71 | 190 | 6.0 | 12.0 | 0.00 | 0.00 | 0.00 | 38 | 1008.0 |
| 20260505033343 | 72 | 190 | 7.0 | 16.0 | 0.00 | 0.00 | 0.00 | 41 | 1008.0 |
| 20260505032843 | 72 | 190 | 7.0 | 16.0 | 0.00 | 0.00 | 0.00 | 41 | 1008.1 |
| 20260505032350 | 72 | 190 | 6.0 | 11.0 | 0.00 | 0.00 | 0.00 | 42 | 1008.0 |
| 20260505031844 | 72 | 190 | 5.0 | 10.0 | 0.00 | 0.00 | 0.00 | 42 | 1008.1 |
| 20260505031347 | 72 | 190 | 5.0 | 13.0 | 0.00 | 0.00 | 0.00 | 43 | 1008.2 |
| 20260505030339 | 72 | 190 | 5.0 | 13.0 | 0.00 | 0.00 | 0.00 | 44 | 1008.2 |
| 20260505025839 | 72 | 190 | 6.0 | 12.0 | 0.00 | 0.00 | 0.00 | 46 | 1008.2 |
| 20260505025342 | 72 | 190 | 7.0 | 12.0 | 0.00 | 0.00 | 0.00 | 46 | 1008.1 |
| 20260505024845 | 72 | 190 | 6.0 | 12.0 | 0.00 | 0.00 | 0.00 | 46 | 1008.0 |
| 20260505024346 | 72 | 190 | 6.0 | 12.0 | 0.00 | 0.00 | 0.00 | 45 | 1008.0 |
| 20260505023845 | 72 | 190 | 5.0 | 10.0 | 0.00 | 0.00 | 0.00 | 44 | 1007.9 |
| 20260505023342 | 73 | 190 | 5.0 | 10.0 | 0.00 | 0.00 | 0.00 | 46 | 1008.0 |
| 20260505023112 | 73 | 190 | 6.0 | 11.0 | 0.00 | 0.00 | 0.00 | 48 | 1007.9 |
| 20260505022344 | 73 | 190 | 5.0 | 11.0 | 0.00 | 0.00 | 0.00 | 49 | 1007.8 |
| 20260505021852 | 73 | 190 | 5.0 | 11.0 | 0.00 | 0.00 | 0.00 | 51 | 1007.8 |
| 20260505021338 | 73 | 190 | 5.0 | 9.0 | 0.00 | 0.00 | 0.00 | 52 | 1007.9 |
| 20260505020841 | 73 | 190 | 5.0 | 9.0 | 0.00 | 0.00 | 0.00 | 53 | 1007.8 |
| 20260505020339 | 73 | 190 | 4.0 | 10.0 | 0.00 | 0.00 | 0.00 | 54 | 1007.8 |
| 20260505015836 | 74 | 190 | 5.0 | 10.0 | 0.00 | 0.00 | 0.00 | 55 | 1007.7 |
| 20260505015335 | 74 | 190 | 6.0 | 13.0 | 0.00 | 0.00 | 0.00 | 56 | 1007.7 |
| 20260505014843 | 74 | 190 | 5.0 | 13.0 | 0.00 | 0.00 | 0.00 | 56 | 1007.6 |
| 20260505013840 | 74 | 190 | 4.0 | 10.0 | 0.00 | 0.00 | 0.00 | 58 | 1007.5 |
| 20260505013613 | 74 | 190 | 4.0 | 10.0 | 0.00 | 0.00 | 0.00 | 59 | 1007.5 |
| 20260505012833 | 74 | 190 | 4.0 | 9.0 | 0.00 | 0.00 | 0.00 | 61 | 1007.4 |
| 20260505012328 | 74 | 190 | 4.0 | 9.0 | 0.00 | 0.00 | 0.00 | 61 | 1007.4 |
| 20260505011323 | 75 | 190 | 5.0 | 9.0 | 0.00 | 0.00 | 0.00 | 63 | 1007.3 |
| 20260505010610 | 75 | 190 | 5.0 | 9.0 | 0.00 | 0.00 | 0.00 | 64 | 1007.2 |
| 20260505005826 | 76 | 190 | 5.0 | 10.0 | 0.00 | 0.00 | 0.00 | 64 | 1007.3 |
| 20260505005322 | 76 | 190 | 5.0 | 13.0 | 0.00 | 0.00 | 0.00 | 65 | 1007.2 |
| 20260505003817 | 76 | 190 | 6.0 | 15.0 | 0.00 | 0.00 | 0.00 | 65 | 1007.4 |
| 20260505003323 | 76 | 190 | 7.0 | 15.0 | 0.00 | 0.00 | 0.00 | 65 | 1007.3 |
| 20260505002823 | 76 | 190 | 6.0 | 12.0 | 0.00 | 0.00 | 0.00 | 65 | 1007.3 |
| 20260505001823 | 77 | 190 | 7.0 | 14.0 | 0.00 | 0.00 | 0.00 | 65 | 1007.5 |
| 20260505001316 | 77 | 190 | 7.0 | 14.0 | 0.00 | 0.00 | 0.00 | 66 | 1007.5 |
| 20260505001050 | 77 | 190 | 7.0 | 11.0 | 0.00 | 0.00 | 0.00 | 66 | 1007.5 |
| 20260505000315 | 77 | 190 | 7.0 | 12.0 | 0.00 | 0.00 | 0.00 | 66 | 1007.5 |
| 20260504235820 | 77 | 190 | 8.0 | 16.0 | 0.00 | 0.00 | 0.00 | 66 | 1007.6 |
| 20260504235318 | 78 | 190 | 8.0 | 16.0 | 0.00 | 0.00 | 0.00 | 66 | 1007.5 |
| 20260504234812 | 78 | 190 | 7.0 | 13.0 | 0.00 | 0.00 | 0.00 | 66 | 1007.4 |
| 20260504234309 | 78 | 190 | 7.0 | 14.0 | 0.00 | 0.00 | 0.00 | 66 | 1007.5 |
| 20260504233809 | 78 | 190 | 7.0 | 14.0 | 0.00 | 0.00 | 0.00 | 66 | 1007.6 |
| 20260504233308 | 78 | 190 | 7.0 | 15.0 | 0.00 | 0.00 | 0.00 | 66 | 1007.7 |
| 20260504233041 | 78 | 190 | 7.0 | 15.0 | 0.00 | 0.00 | 0.00 | 66 | 1007.7 |
| 20260504232310 | 78 | 190 | 8.0 | 14.0 | 0.00 | 0.00 | 0.00 | 66 | 1007.7 |
| 20260504231809 | 78 | 190 | 7.0 | 15.0 | 0.00 | 0.00 | 0.00 | 65 | 1007.7 |
| 20260504231557 | 79 | 190 | 6.0 | 15.0 | 0.00 | 0.00 | 0.00 | 65 | 1007.8 |
| 20260504231033 | 78 | 190 | 6.0 | 12.0 | 0.00 | 0.00 | 0.00 | 66 | 1007.8 |
| 20260504230307 | 78 | 190 | 7.0 | 14.0 | 0.00 | 0.00 | 0.00 | 66 | 1007.7 |
| 20260504225803 | 78 | 190 | 8.0 | 14.0 | 0.00 | 0.00 | 0.00 | 66 | 1007.9 |
| 20260504225304 | 79 | 190 | 8.0 | 14.0 | 0.00 | 0.00 | 0.00 | 65 | 1007.9 |
| 20260504224255 | 79 | 190 | 8.0 | 16.0 | 0.00 | 0.00 | 0.00 | 65 | 1008.0 |
| 20260504223752 | 79 | 190 | 9.0 | 16.0 | 0.00 | 0.00 | 0.00 | 65 | 1008.0 |
| 20260504223258 | 80 | 190 | 9.0 | 15.0 | 0.00 | 0.00 | 0.00 | 65 | 1008.0 |
| 20260504222752 | 80 | 190 | 8.0 | 14.0 | 0.00 | 0.00 | 0.00 | 64 | 1008.0 |
| 20260504222254 | 80 | 190 | 8.0 | 15.0 | 0.00 | 0.00 | 0.00 | 64 | 1008.0 |
| 20260504221801 | 80 | 190 | 7.0 | 15.0 | 0.00 | 0.00 | 0.00 | 63 | 1008.1 |
| 20260504221246 | 81 | 190 | 7.0 | 14.0 | 0.00 | 0.00 | 0.00 | 63 | 1008.0 |
| 20260504220748 | 81 | 190 | 8.0 | 15.0 | 0.00 | 0.00 | 0.00 | 62 | 1008.0 |
| 20260504220248 | 81 | 190 | 9.0 | 15.0 | 0.00 | 0.00 | 0.00 | 62 | 1008.1 |
| 20260504215747 | 81 | 190 | 9.0 | 15.0 | 0.00 | 0.00 | 0.00 | 62 | 1008.0 |
| 20260504215255 | 81 | 190 | 8.0 | 16.0 | 0.00 | 0.00 | 0.00 | 61 | 1008.1 |
| 20260504214747 | 81 | 190 | 7.0 | 18.0 | 0.00 | 0.00 | 0.00 | 61 | 1008.3 |
| 20260504214242 | 81 | 190 | 6.0 | 13.0 | 0.00 | 0.00 | 0.00 | 61 | 1008.4 |
| 20260504213751 | 81 | 190 | 6.0 | 11.0 | 0.00 | 0.00 | 0.00 | 62 | 1008.6 |
| 20260504213242 | 80 | 190 | 5.0 | 11.0 | 0.00 | 0.00 | 0.00 | 62 | 1008.7 |
| 20260504212744 | 80 | 190 | 5.0 | 11.0 | 0.00 | 0.00 | 0.00 | 62 | 1008.8 |
| 20260504212248 | 80 | 190 | 6.0 | 11.0 | 0.00 | 0.00 | 0.00 | 62 | 1008.9 |
| 20260504211742 | 81 | 190 | 5.0 | 14.0 | 0.00 | 0.00 | 0.00 | 62 | 1008.9 |
| 20260504211237 | 81 | 190 | 5.0 | 14.0 | 0.00 | 0.00 | 0.00 | 61 | 1009.1 |
| 20260504210740 | 81 | 190 | 5.0 | 9.0 | 0.00 | 0.00 | 0.00 | 61 | 1009.2 |